Probability
29 58 68 87 87 81 81 81 87 84 84 87 87 84 81 81 84 77 71 74 77 74 74 68 68 68 77 77 71 61 65 68 65 61 58 55 58 58 65 61 52 39 65
45 55 68 84 87 77 74 77 87 87 87 87 81 84 87 77 74 74 71 71 74 68 77 81 81 71 74 74 68 68 65 61 65 65 61 55 58 65 65 58 55 39 68
42 55 68 87 87 81 74 84 87 87 84 84 81 74 81 87 81 74 74 68 71 65 65 81 74 74 71 68 65 65 61 65 65 61 45 16 42 61 61 58 61 65 68
35 45 65 90 87 84 84 84 84 87 81 87 87 81 84 87 77 74 77 77 71 68 74 68 68 77 71 65 65 65 58 55 58 35 6 13 13 61 61 61 65 61 65
35 58 77 87 87 87 84 90 90 87 87 90 87 81 84 81 74 77 77 68 68 68 68 68 68 71 68 68 65 65 55 55 48 13 0 3 10 65 68 68 65 61 55
42 61 81 90 87 87 87 90 87 87 87 84 84 81 71 71 84 74 71 68 65 65 61 61 61 65 48 45 42 45 45 48 29 6 0 0 13 74 61 58 58 58 52
39 61 77 90 90 90 90 87 87 87 87 81 81 77 77 74 77 71 68 65 55 58 55 58 52 45 35 35 39 45 48 48 13 3 3 0 13 65 58 58 58 52 52
39 61 71 94 87 90 90 87 87 87 81 81 77 77 74 74 74 74 65 65 61 58 55 52 48 42 35 42 45 42 42 32 6 3 0 3 39 68 58 52 58 61 52
35 55 65 68 74 90 90 94 87 87 81 77 84 84 74 71 74 65 71 65 58 55 52 48 42 39 35 39 42 39 55 48 10 6 3 6 71 68 58 61 58 55 42
29 35 48 52 52 65 68 87 87 87 81 84 81 77 74 74 74 68 74 71 55 52 55 45 35 42 42 45 48 48 52 32 10 0 0 10 71 65 55 52 58 45 39
16 26 32 35 32 35 39 65 74 84 77 74 71 81 65 35 32 48 58 74 58 55 48 52 58 58 52 48 52 58 52 10 0 0 0 32 71 65 61 48 58 48 42
3 6 13 29 23 16 29 29 32 35 35 26 23 26 23 10 10 29 48 68 68 55 45 58 65 58 42 10 16 29 10 0 0 0 6 55 71 65 61 65 61 55 45
10 6 10 19 16 10 10 19 16 13 16 19 23 19 13 6 6 10 10 39 39 45 26 35 39 26 19 0 0 0 0 0 0 0 6 58 71 61 61 65 58 58 55
3 3 16 16 19 13 6 13 10 16 16 19 19 19 13 10 6 6 3 6 6 3 0 3 6 13 6 0 0 0 0 0 0 0 6 48 58 68 55 52 61 61 58
10 13 26 26 23 13 13 19 19 13 29 26 13 13 6 0 0 3 3 3 0 0 0 3 3 3 0 0 0 0 0 0 0 0 3 58 74 74 71 65 55 55 52
16 26 29 26 16 16 19 19 13 19 10 13 3 16 16 6 3 3 3 3 3 0 3 6 6 6 3 3 0 0 0 0 0 0 3 26 65 71 68 55 61 61 55
23 26 32 32 26 23 23 23 23 26 16 10 6 6 16 6 0 3 6 6 10 6 6 6 0 0 6 10 3 3 3 3 3 3 3 6 16 52 58 58 61 58 52
23 32 35 45 39 32 32 35 39 29 29 19 16 13 23 10 6 10 16 10 10 10 10 6 6 6 6 6 3 3 6 3 6 3 3 3 3 10 29 55 61 61 58
10 23 32 35 32 35 35 32 29 32 26 16 16 19 16 29 23 19 10 13 13 6 3 6 6 6 6 6 10 10 3 3 3 6 3 3 3 3 3 13 39 42 42
19 26 29 29 35 42 42 32 26 23 26 26 16 23 19 29 23 10 6 6 16 6 10 13 10 10 10 13 16 10 3 3 3 0 0 0 3 3 3 3 13 19 35
32 29 26 32 39 42 35 32 26 26 29 23 26 35 29 26 26 13 19 13 13 16 10 13 10 10 13 10 3 3 3 0 0 0 0 0 0 3 3 3 3 3 3
35 32 32 48 42 45 35 32 29 32 39 29 29 29 29 23 23 32 19 16 16 19 16 10 10 6 10 6 3 3 3 3 0 0 0 0 0 0 3 3 3 3 3
39 42 45 52 39 45 45 35 39 29 23 23 26 26 29 29 29 23 16 19 16 19 13 16 16 10 6 3 3 3 3 3 0 0 0 0 0 0 0 6 3 3 3
45 52 52 55 45 52 42 39 35 29 29 32 23 29 16 19 26 19 16 19 19 16 16 19 13 10 6 6 6 3 3 3 3 0 0 0 0 0 0 0 0 3 0
45 48 55 52 58 48 45 42 42 42 35 32 32 29 26 23 26 32 23 26 19 16 16 13 16 6 6 6 6 6 3 3 0 0 0 0 0 0 0 0 0 0 3
52 48 55 55 55 55 48 42 45 45 42 32 29 32 29 26 29 29 29 16 19 19 13 13 10 13 6 6 6 3 0 0 0 0 0 0 0 0 0 0 0 0 0
Height
5870 5869 5869 5869 5869 5869 5869 5869 5869 5869 5869 5869 5870 5871 5871 5872 5873 5874 5874 5875 5876 5876 5877 5878 5879 5880 5881 5882 5882 5883 5884 5884 5885 5885 5885 5885 5885 5886 5886 5886 5887 5887 5887
5872 5871 5870 5870 5870 5870 5870 5870 5870 5870 5870 5871 5871 5872 5872 5873 5874 5875 5875 5876 5877 5877 5878 5879 5880 5881 5882 5883 5884 5884 5885 5885 5886 5886 5886 5886 5886 5887 5887 5888 5888 5888 5888
5873 5872 5872 5871 5871 5871 5871 5871 5871 5871 5871 5872 5873 5873 5874 5875 5875 5876 5877 5878 5878 5879 5879 5880 5881 5882 5883 5884 5885 5885 5886 5886 5886 5887 5887 5887 5887 5888 5888 5889 5889 5889 5889
5874 5873 5873 5873 5873 5873 5873 5872 5872 5872 5873 5873 5874 5874 5875 5876 5877 5877 5878 5879 5880 5880 5881 5881 5883 5883 5884 5885 5886 5886 5887 5887 5887 5887 5887 5887 5888 5888 5889 5889 5890 5890 5890
5875 5874 5874 5874 5874 5874 5874 5874 5874 5874 5874 5875 5875 5875 5876 5877 5878 5879 5879 5880 5881 5881 5882 5883 5884 5884 5885 5886 5887 5888 5888 5888 5888 5888 5887 5887 5888 5889 5890 5891 5891 5891 5891
5876 5876 5875 5875 5875 5875 5875 5875 5876 5876 5875 5876 5876 5877 5877 5878 5879 5880 5881 5881 5882 5883 5883 5884 5885 5886 5887 5887 5888 5889 5889 5889 5889 5889 5889 5889 5890 5891 5891 5892 5892 5892 5892
5878 5877 5876 5877 5877 5877 5877 5877 5877 5877 5877 5877 5878 5878 5878 5879 5880 5881 5882 5883 5884 5884 5885 5885 5886 5887 5888 5889 5890 5890 5891 5891 5891 5891 5891 5892 5892 5892 5893 5893 5893 5893 5893
5879 5878 5878 5879 5879 5879 5879 5878 5878 5878 5878 5879 5879 5880 5880 5881 5882 5883 5883 5884 5885 5885 5886 5886 5888 5888 5889 5890 5891 5892 5892 5892 5893 5893 5893 5893 5894 5894 5894 5894 5894 5894 5894
5881 5880 5880 5880 5880 5880 5880 5880 5880 5880 5880 5880 5881 5881 5882 5883 5883 5884 5885 5885 5886 5886 5887 5888 5889 5890 5891 5891 5892 5893 5893 5894 5894 5894 5895 5895 5895 5895 5894 5894 5894 5894 5894
5883 5882 5882 5882 5882 5882 5882 5881 5881 5881 5882 5882 5882 5882 5883 5884 5884 5885 5886 5886 5887 5888 5888 5889 5890 5891 5892 5892 5893 5894 5894 5895 5895 5895 5896 5896 5896 5895 5895 5895 5895 5895 5895
5886 5885 5885 5885 5884 5884 5884 5883 5883 5883 5883 5883 5883 5884 5884 5884 5885 5886 5886 5887 5888 5889 5890 5890 5891 5892 5893 5893 5894 5894 5895 5895 5896 5896 5896 5896 5896 5896 5896 5895 5895 5895 5895
5889 5888 5888 5887 5886 5886 5886 5885 5885 5884 5884 5884 5884 5885 5885 5886 5886 5887 5888 5889 5889 5890 5891 5892 5892 5893 5893 5894 5895 5895 5895 5896 5896 5896 5897 5897 5896 5896 5896 5896 5896 5895 5895
5891 5891 5890 5890 5889 5888 5887 5887 5886 5886 5886 5886 5886 5886 5886 5887 5888 5888 5889 5890 5891 5891 5892 5893 5893 5894 5894 5894 5895 5895 5896 5896 5896 5897 5897 5896 5896 5896 5896 5896 5895 5895 5895
5894 5893 5893 5892 5891 5890 5889 5889 5888 5888 5888 5887 5887 5887 5887 5888 5889 5889 5890 5891 5892 5892 5893 5893 5894 5894 5894 5895 5895 5896 5896 5896 5896 5896 5896 5896 5896 5896 5895 5895 5895 5895 5894
5896 5896 5895 5894 5893 5893 5892 5891 5890 5890 5889 5889 5889 5889 5889 5889 5890 5890 5891 5892 5893 5893 5893 5893 5894 5894 5895 5895 5895 5895 5896 5896 5896 5896 5895 5895 5895 5895 5895 5894 5894 5894 5894
5898 5897 5896 5896 5895 5894 5894 5893 5892 5892 5891 5891 5890 5890 5890 5891 5891 5891 5892 5893 5893 5894 5894 5894 5894 5895 5895 5895 5895 5895 5895 5895 5895 5895 5895 5895 5894 5894 5894 5893 5893 5893 5893
5900 5899 5898 5898 5897 5896 5895 5895 5894 5893 5893 5892 5892 5892 5892 5892 5892 5893 5893 5894 5894 5894 5895 5895 5895 5895 5896 5895 5895 5895 5895 5894 5894 5894 5894 5894 5894 5893 5893 5892 5892 5892 5891
5903 5902 5900 5900 5899 5898 5897 5896 5896 5895 5894 5894 5894 5894 5893 5893 5893 5894 5895 5895 5895 5895 5895 5895 5895 5895 5895 5895 5895 5894 5894 5894 5894 5893 5893 5893 5892 5892 5891 5891 5890 5890 5890
5905 5904 5903 5902 5901 5900 5899 5898 5897 5896 5896 5896 5895 5895 5895 5895 5895 5895 5895 5896 5896 5896 5896 5896 5896 5896 5896 5895 5894 5894 5894 5894 5893 5892 5892 5892 5891 5890 5890 5889 5889 5888 5888
5907 5906 5904 5903 5903 5902 5901 5900 5899 5898 5898 5898 5897 5897 5896 5896 5896 5896 5896 5896 5897 5897 5896 5896 5896 5895 5895 5895 5894 5894 5893 5893 5892 5891 5891 5890 5889 5889 5888 5888 5887 5886 5886
5909 5908 5907 5906 5905 5904 5903 5902 5901 5900 5900 5899 5898 5898 5898 5898 5898 5898 5898 5897 5897 5897 5897 5896 5896 5895 5895 5894 5894 5893 5893 5892 5891 5890 5889 5888 5888 5887 5886 5886 5884 5884 5883
5911 5910 5908 5907 5906 5905 5904 5903 5903 5902 5901 5900 5900 5899 5899 5899 5898 5898 5898 5898 5897 5897 5896 5896 5895 5895 5894 5894 5893 5892 5892 5891 5890 5889 5888 5887 5886 5885 5884 5883 5882 5881 5880
5913 5911 5910 5909 5908 5907 5905 5905 5904 5903 5902 5902 5901 5901 5900 5900 5899 5899 5899 5898 5898 5897 5897 5896 5895 5895 5894 5893 5892 5892 5891 5890 5889 5888 5886 5885 5884 5883 5882 5881 5880 5879 5878
5914 5913 5912 5911 5909 5908 5907 5906 5905 5905 5904 5903 5902 5902 5901 5900 5900 5899 5899 5898 5898 5897 5896 5896 5895 5894 5893 5892 5891 5890 5890 5889 5888 5886 5885 5884 5882 5881 5880 5878 5877 5876 5875
5915 5914 5913 5912 5911 5909 5908 5907 5907 5906 5905 5904 5903 5902 5901 5901 5900 5899 5899 5898 5898 5897 5896 5895 5894 5893 5892 5891 5890 5889 5888 5887 5886 5885 5883 5882 5881 5879 5877 5876 5875 5873 5872
5916 5915 5914 5913 5912 5910 5909 5908 5908 5907 5906 5905 5903 5902 5902 5901 5900 5900 5899 5898 5897 5896 5895 5894 5893 5892 5891 5889 5888 5887 5886 5885 5884 5883 5881 5880 5879 5877 5875 5874 5872 5870 5869
Wind_Speed
9 9 8 7 7 7 7 7 6 6 6 6 7 8 8 9 9 10 11 10 9 9 10 10 10 10 10 10 10 10 10 10 9 8 8 8 8 8 8 7 7 7 7
10 9 8 7 8 7 7 6 6 6 6 7 8 8 9 10 10 10 11 10 10 9 9 10 10 11 11 11 11 11 10 9 9 8 8 8 8 9 9 8 8 8 7
9 9 8 8 8 9 8 7 7 8 8 8 8 8 9 9 10 10 10 10 10 9 9 10 10 11 12 12 12 11 10 9 9 9 8 8 9 9 9 9 8 8 7
10 9 8 8 9 9 9 9 8 9 8 8 8 8 9 9 10 10 10 10 10 9 9 10 11 12 12 12 12 11 10 10 9 9 9 9 9 9 9 8 8 8 8
10 9 8 8 9 9 9 9 9 8 8 8 8 8 9 9 10 10 10 10 10 10 10 10 12 12 12 12 12 11 11 10 10 10 9 9 9 9 8 8 7 8 7
11 10 9 9 9 9 9 8 8 8 9 9 9 9 9 10 10 9 10 10 10 10 10 10 11 12 12 12 12 11 11 10 10 10 10 10 9 9 8 8 7 7 7
11 10 10 9 9 9 9 9 9 8 9 9 9 9 10 10 9 9 9 10 10 9 11 12 12 12 12 11 11 10 10 10 10 9 10 9 8 8 8 7 7 6 6
12 10 10 9 9 9 9 9 9 8 9 9 9 9 9 10 9 9 9 9 10 10 12 12 12 11 11 10 10 9 9 9 9 8 9 8 8 8 7 7 6 6 5
13 11 11 10 9 9 9 8 8 8 8 8 9 9 8 8 8 9 8 9 9 10 10 12 12 11 11 10 9 9 9 8 8 7 7 7 7 6 6 6 5 4 4
14 14 13 11 10 10 9 9 8 8 8 8 8 9 8 8 8 8 8 8 9 10 10 11 11 11 10 9 8 8 8 7 6 6 6 5 5 5 5 5 4 4 4
14 14 13 12 11 10 9 9 8 8 8 8 8 8 8 8 9 9 9 9 9 9 9 9 9 9 9 9 7 7 6 5 5 4 4 4 4 3 3 3 3 3 3
13 13 13 12 11 10 10 9 8 8 8 7 7 6 7 8 8 8 9 9 9 9 8 8 8 8 8 7 7 6 5 4 4 3 3 2 2 2 2 2 1 1 1
14 13 12 12 11 11 10 9 9 9 8 8 7 7 7 8 8 8 8 8 8 7 7 6 7 6 6 6 6 5 4 3 2 2 2 1 2 1 1 1 0 0 1
15 14 13 13 11 10 10 10 9 9 8 8 8 8 8 7 7 7 7 7 6 6 6 5 5 5 6 5 5 4 3 3 2 2 2 2 2 2 2 2 2 2 2
15 14 14 13 13 12 11 10 10 10 9 9 9 9 8 7 7 7 7 6 5 5 5 5 5 5 4 4 3 3 3 3 3 2 2 2 3 2 3 3 3 4 4
14 14 14 13 13 13 12 11 10 10 9 9 8 8 8 7 7 7 7 6 5 5 5 4 3 4 3 3 3 2 2 3 3 3 3 3 3 3 4 4 5 5 6
14 13 13 13 13 12 12 12 11 10 9 9 8 8 8 8 7 7 7 6 5 4 4 3 3 3 3 2 2 3 2 2 2 3 3 3 4 4 5 5 5 6 6
14 14 13 13 13 12 12 12 12 10 9 9 8 8 8 8 8 7 6 6 4 4 3 3 2 2 2 2 2 3 3 2 3 3 3 4 4 5 5 6 6 7 7
13 13 13 12 12 12 12 12 12 11 10 10 9 8 8 8 8 7 5 5 4 3 2 2 2 1 1 1 1 2 3 3 4 4 4 5 5 6 6 7 7 8 8
13 13 12 12 12 12 11 11 11 11 10 9 9 9 8 8 7 7 5 4 3 3 2 2 1 1 1 0 1 1 2 3 4 5 5 6 6 7 8 8 9 9 9
12 12 11 11 11 11 10 10 10 10 9 9 8 8 8 7 7 6 5 4 4 3 2 2 2 1 1 1 1 2 3 4 5 6 7 7 7 7 8 9 10 10 10
11 11 11 11 11 10 10 9 9 9 9 8 8 8 7 6 5 4 5 4 4 3 3 2 2 2 2 2 2 3 3 4 4 6 7 7 8 9 9 10 10 10 11
10 10 10 10 10 9 9 9 8 8 8 8 7 7 6 6 5 4 4 4 4 3 3 3 3 3 3 3 4 4 4 5 6 7 7 7 8 9 9 10 10 10 11
9 10 10 9 9 9 9 9 8 8 7 7 6 5 5 5 5 4 4 3 3 3 3 3 4 4 4 4 4 4 4 5 6 6 7 7 8 8 9 9 10 10 10
9 9 9 9 9 9 8 7 7 7 7 7 6 5 4 4 4 4 4 3 3 3 4 4 5 5 4 4 4 5 5 5 6 6 7 8 8 9 9 9 10 10 10
7 8 8 8 8 8 8 7 6 6 6 7 7 6 4 4 4 4 4 3 3 4 4 5 6 6 6 6 5 5 6 6 7 7 8 9 9 9 10 10 11 11 11
Wind_Direction
64 72 78 85 86 86 91 90 91 96 107 112 119 127 131 134 138 140 140 137 129 132 133 129 131 130 127 125 125 125 124 122 124 122 121 126 125 121 118 116 111 109 105
65 73 82 81 82 84 92 91 95 100 109 115 122 127 132 135 137 137 137 136 131 129 131 128 130 130 127 126 126 124 121 121 121 121 123 125 124 122 119 113 108 101 100
66 76 80 77 77 79 87 101 94 102 111 116 121 125 132 135 133 134 134 136 133 132 130 129 129 131 127 125 125 122 120 119 119 121 124 123 124 125 119 112 106 101 100
71 78 83 78 79 82 87 96 96 101 110 115 121 122 129 132 132 132 135 136 135 133 131 133 131 131 128 126 125 123 120 120 119 118 120 121 124 123 119 114 111 105 101
69 77 84 80 83 85 87 93 98 96 109 115 118 119 126 130 132 132 133 135 136 136 136 136 133 132 128 127 124 123 123 123 120 116 113 117 121 119 118 115 111 106 103
68 74 84 86 86 86 90 93 97 99 110 119 123 122 124 127 129 129 132 134 135 136 135 137 133 133 130 129 126 125 125 122 115 113 110 113 116 118 117 112 107 103 103
69 76 83 87 86 87 88 90 96 104 115 123 128 126 127 127 127 129 128 129 131 135 134 131 129 129 131 130 130 127 123 121 113 114 115 114 113 113 111 109 106 103 99
72 81 87 88 87 87 89 88 92 101 112 122 127 126 126 124 129 128 128 132 133 133 134 132 128 128 130 130 129 127 124 121 119 117 117 117 117 114 110 111 109 104 98
74 82 88 86 85 87 90 90 96 103 105 113 122 128 131 127 127 125 132 137 138 134 132 132 132 132 133 131 129 130 128 125 124 121 117 115 115 113 110 109 106 104 100
74 79 83 84 85 86 86 87 91 100 104 106 115 124 133 138 137 131 134 137 138 136 136 135 132 134 137 136 134 133 132 125 125 127 119 116 112 108 108 106 99 99 97
75 78 82 84 85 84 87 88 91 99 104 107 115 121 125 137 142 139 136 137 140 143 139 139 135 137 140 143 142 136 134 131 130 129 126 124 121 112 107 107 102 100 98
73 77 80 84 86 88 87 91 93 100 103 109 118 120 126 134 136 138 136 133 135 137 140 140 142 142 143 147 146 142 143 142 137 138 145 152 137 124 121 116 103 97 100
76 79 80 82 81 81 84 87 89 95 99 101 108 115 126 132 134 134 131 127 125 127 135 140 143 144 147 150 154 154 152 148 143 156 168 183 177 155 157 166 204 277 263
75 77 80 82 80 79 80 80 83 87 89 96 103 116 125 127 136 141 136 134 134 134 138 144 146 147 150 154 156 159 161 152 163 185 204 223 232 242 254 260 270 283 289
73 74 75 78 79 78 78 80 82 87 89 90 95 108 115 122 132 142 147 147 145 137 138 145 144 141 142 155 160 164 183 197 204 213 229 250 260 263 269 278 285 281 284
67 68 71 73 73 74 75 76 77 82 85 87 89 97 107 116 125 134 142 142 138 135 138 139 139 160 159 161 174 182 198 208 224 235 249 274 280 279 275 280 280 281 281
64 67 70 70 70 69 70 69 70 77 78 81 86 88 99 108 116 121 131 132 126 125 127 134 139 158 163 194 221 223 216 222 235 251 260 276 281 282 279 280 280 285 284
64 66 70 70 68 68 67 68 69 72 73 75 83 88 97 103 112 118 121 120 118 122 130 134 135 140 171 221 240 239 240 248 256 247 263 277 283 285 282 281 282 282 283
63 65 67 67 66 67 66 69 69 69 71 73 78 87 93 98 104 110 111 111 114 114 128 144 143 147 177 242 248 243 258 271 267 261 266 272 279 285 285 283 279 282 283
59 62 66 66 65 66 66 69 69 69 69 71 75 84 89 90 94 97 98 104 114 117 118 129 159 173 196 255 276 275 275 289 289 274 269 274 280 286 285 286 280 281 279
58 60 63 65 65 67 68 68 68 68 67 69 74 82 87 90 94 90 85 88 95 102 104 107 104 88 29 336 319 314 307 297 290 282 281 285 284 283 285 284 282 281 280
59 60 61 63 63 65 65 66 68 67 65 67 71 77 82 83 81 79 77 74 73 72 66 56 44 21 352 330 315 307 313 310 298 291 287 287 284 283 284 283 283 286 286
58 59 60 61 60 61 62 62 64 62 61 61 65 70 74 73 71 75 72 64 58 59 49 30 11 352 338 321 312 311 312 316 309 302 297 292 290 288 284 286 288 289 289
53 55 56 56 55 57 58 57 59 60 59 58 59 61 61 62 62 57 53 53 48 40 24 2 350 338 326 317 314 315 317 321 319 321 315 307 303 297 291 289 290 289 289
46 48 50 51 51 51 53 52 55 58 54 52 52 52 52 52 47 44 38 38 36 23 6 353 347 341 334 324 317 316 317 319 320 320 316 307 303 301 300 295 293 292 291
42 43 43 43 45 46 49 49 52 51 49 48 48 47 52 47 37 32 24 20 12 360 350 346 344 340 338 330 323 321 319 318 317 317 315 312 306 303 304 300 298 297 294